When you browse on this site, cookies collect data to enhance your experience and personalize the content and advertising you see.
Visit our Privacy Policy to learn more. By continuing to use the site, you agree to this use of cookies and data.
  • En España
  • Lista de países
  • Para 7 días
  • Temperatura del agua
  • Mapa Satelital
  • El tiempo en el mapa
  • Informadores
  • user-avatar
    Iniciar sesión

    Tiempo cada hora Cobija

    Hoy, 18 Enero, Viernes

    Tiempo Temperatura Precipitaciones Viento Presión Humedad
    00:00 +23°C° 0 mm 0 mps 739 mmHg 97%
    01:00 +22°C° 0 mm 0 mps 739 mmHg 97%
    02:00 +22°C° 2 mm 0 mps 739 mmHg 98%
    03:00 +22°C° 2 mm 0 mps 739 mmHg 98%
    04:00 +24°C° 2 mm 1 mps 738 mmHg 99%
    05:00 +22°C° 2 mm 0 mps 739 mmHg 98%
    06:00 +23°C° 2 mm 0 mps 740 mmHg 98%
    07:00 +23°C° 2 mm 0 mps 740 mmHg 97%
    08:00 +25°C° 1.9 mm 0 mps 740 mmHg 92%
    09:00 +28°C° 1.9 mm 1 mps 740 mmHg 88%
    10:00 +30°C° 1.9 mm 1 mps 740 mmHg 83%
    11:00 +31°C° 1.5 mm 1 mps 740 mmHg 78%
    12:00 +31°C° 1.5 mm 1 mps 739 mmHg 73%
    13:00 +30°C° 1.5 mm 0 mps 739 mmHg 67%
    14:00 +32°C° 0 mm 1 mps 738 mmHg 65%
    15:00 +32°C° 0 mm 1 mps 737 mmHg 63%
    16:00 +32°C° 0 mm 1 mps 737 mmHg 61%
    17:00 +30°C° 0 mm 1 mps 737 mmHg 70%
    18:00 +28°C° 0 mm 1 mps 737 mmHg 80%
    19:00 +26°C° 0 mm 1 mps 737 mmHg 89%
    20:00 +26°C° 0 mm 1 mps 737 mmHg 90%
    21:00 +26°C° 0 mm 1 mps 738 mmHg 90%
    22:00 +26°C° 0 mm 1 mps 739 mmHg 91%
    23:00 +23°C° 0 mm 0 mps 739 mmHg 93%

    Mañana, 19 Enero, Sábado

    Tiempo Temperatura Precipitaciones Viento Presión Humedad
    00:00 +23°C° 0 mm 0 mps 738 mmHg 94%
    01:00 +22°C° 0 mm 0 mps 738 mmHg 95%
    02:00 +22°C° 0 mm 0 mps 738 mmHg 96%
    03:00 +22°C° 0 mm 0 mps 738 mmHg 96%
    04:00 +22°C° 0 mm 0 mps 738 mmHg 96%
    05:00 +23°C° 0 mm 0 mps 738 mmHg 92%
    06:00 +24°C° 0 mm 0 mps 739 mmHg 88%
    07:00 +27°C° 0 mm 1 mps 740 mmHg 84%
    08:00 +29°C° 0 mm 1 mps 740 mmHg 74%
    09:00 +32°C° 0 mm 1 mps 740 mmHg 63%
    10:00 +34°C° 0 mm 1 mps 740 mmHg 52%
    11:00 +33°C° 0 mm 0 mps 739 mmHg 49%
    12:00 +34°C° 0 mm 0 mps 739 mmHg 45%
    13:00 +35°C° 0 mm 0 mps 738 mmHg 42%
    14:00 +34°C° 0 mm 0 mps 737 mmHg 46%
    15:00 +33°C° 0 mm 0 mps 737 mmHg 51%
    16:00 +32°C° 0 mm 0 mps 736 mmHg 55%
    17:00 +32°C° 0.2 mm 1 mps 736 mmHg 65%
    18:00 +30°C° 0.2 mm 1 mps 736 mmHg 75%
    19:00 +27°C° 0.2 mm 1 mps 737 mmHg 85%
    20:00 +27°C° 0.3 mm 1 mps 738 mmHg 88%
    21:00 +26°C° 0.3 mm 1 mps 738 mmHg 91%
    22:00 +24°C° 0.3 mm 0 mps 739 mmHg 94%
    23:00 +24°C° 0 mm 0 mps 739 mmHg 95%

    Pasado mañana, 20 Enero, Domingo

    Tiempo Temperatura Precipitaciones Viento Presión Humedad
    00:00 +23°C° 0 mm 0 mps 738 mmHg 95%
    01:00 +23°C° 0 mm 0 mps 738 mmHg 95%
    02:00 +23°C° 0.1 mm 0 mps 738 mmHg 96%
    03:00 +23°C° 0.1 mm 0 mps 738 mmHg 96%
    04:00 +23°C° 0.1 mm 0 mps 738 mmHg 97%
    05:00 +23°C° 0.1 mm 0 mps 738 mmHg 96%
    06:00 +24°C° 0.1 mm 0 mps 739 mmHg 95%
    07:00 +24°C° 0.1 mm 0 mps 740 mmHg 94%
    08:00 +27°C° 1.3 mm 1 mps 740 mmHg 92%
    09:00 +28°C° 1.3 mm 1 mps 740 mmHg 89%
    10:00 +30°C° 1.3 mm 1 mps 740 mmHg 87%
    11:00 +30°C° 1.6 mm 1 mps 740 mmHg 86%
    12:00 +30°C° 1.6 mm 1 mps 739 mmHg 85%
    13:00 +30°C° 1.6 mm 1 mps 738 mmHg 84%
    14:00 +30°C° 1 mm 1 mps 737 mmHg 86%
    15:00 +28°C° 1 mm 0 mps 736 mmHg 89%
    16:00 +27°C° 1 mm 0 mps 736 mmHg 91%
    17:00 +26°C° 0.2 mm 0 mps 736 mmHg 92%
    18:00 +25°C° 0.2 mm 0 mps 736 mmHg 94%
    19:00 +24°C° 0.2 mm 0 mps 737 mmHg 95%
    20:00 +24°C° 0 mm 0 mps 737 mmHg 94%
    21:00 +23°C° 0 mm 0 mps 738 mmHg 94%
    22:00 +23°C° 0 mm 0 mps 738 mmHg 93%
    23:00 +23°C° 0 mm 0 mps 738 mmHg 93%

    21 Enero, Lunes

    Tiempo Temperatura Precipitaciones Viento Presión Humedad
    00:00 +23°C° 0 mm 0 mps 737 mmHg 92%
    01:00 +22°C° 0 mm 0 mps 737 mmHg 92%
    02:00 +22°C° 0 mm 0 mps 737 mmHg 92%
    03:00 +22°C° 0 mm 0 mps 737 mmHg 92%
    04:00 +22°C° 0 mm 0 mps 737 mmHg 93%
    05:00 +23°C° 0.1 mm 0 mps 738 mmHg 92%
    06:00 +23°C° 0.1 mm 0 mps 738 mmHg 90%
    07:00 +24°C° 0.1 mm 0 mps 739 mmHg 89%
    08:00 +26°C° 0.7 mm 0 mps 739 mmHg 84%
    09:00 +30°C° 0.7 mm 1 mps 739 mmHg 78%
    10:00 +32°C° 0.7 mm 1 mps 740 mmHg 73%
    11:00 +33°C° 0.6 mm 1 mps 739 mmHg 66%
    12:00 +34°C° 0.6 mm 1 mps 738 mmHg 60%
    13:00 +35°C° 0.6 mm 1 mps 737 mmHg 53%
    14:00 +34°C° 1 mm 1 mps 736 mmHg 62%
    15:00 +32°C° 1 mm 1 mps 736 mmHg 71%
    16:00 +31°C° 1 mm 2 mps 735 mmHg 80%
    17:00 +30°C° 0.2 mm 1 mps 735 mmHg 84%
    18:00 +28°C° 0.2 mm 1 mps 736 mmHg 88%
    19:00 +27°C° 0.2 mm 1 mps 736 mmHg 92%
    20:00 +27°C° 0 mm 1 mps 737 mmHg 92%
    21:00 +27°C° 0 mm 1 mps 738 mmHg 92%
    22:00 +27°C° 0 mm 1 mps 739 mmHg 92%
    23:00 +26°C° 1.3 mm 1 mps 739 mmHg 94%

    22 Enero, Martes

    Tiempo Temperatura Precipitaciones Viento Presión Humedad
    00:00 +26°C° 1.3 mm 1 mps 738 mmHg 95%
    01:00 +25°C° 1.3 mm 1 mps 738 mmHg 97%
    02:00 +25°C° 0.3 mm 1 mps 738 mmHg 97%
    03:00 +25°C° 0.3 mm 1 mps 738 mmHg 98%
    04:00 +25°C° 0.3 mm 1 mps 738 mmHg 98%
    05:00 +25°C° 0 mm 1 mps 739 mmHg 97%
    06:00 +26°C° 0 mm 1 mps 739 mmHg 96%
    07:00 +26°C° 0 mm 1 mps 740 mmHg 95%
    08:00 +28°C° 0.1 mm 1 mps 740 mmHg 87%
    09:00 +29°C° 0.1 mm 1 mps 740 mmHg 79%
    10:00 +31°C° 0.1 mm 2 mps 741 mmHg 71%
    11:00 +31°C° 0.8 mm 1 mps 740 mmHg 75%
    12:00 +31°C° 0.8 mm 1 mps 739 mmHg 80%
    13:00 +31°C° 0.8 mm 1 mps 738 mmHg 84%
    14:00 +31°C° 1 mm 1 mps 738 mmHg 87%
    15:00 +30°C° 1 mm 1 mps 737 mmHg 90%
    16:00 +29°C° 1 mm 1 mps 737 mmHg 93%
    17:00 +28°C° 0.3 mm 1 mps 737 mmHg 95%
    18:00 +27°C° 0.3 mm 1 mps 737 mmHg 96%
    19:00 +26°C° 0.3 mm 1 mps 738 mmHg 98%
    20:00 +26°C° 0 mm 1 mps 738 mmHg 98%
    21:00 +24°C° 0 mm 0 mps 739 mmHg 98%
    22:00 +23°C° 0 mm 0 mps 739 mmHg 98%
    23:00 +23°C° 0.3 mm 0 mps 739 mmHg 98%

    23 Enero, Miércoles

    Tiempo Temperatura Precipitaciones Viento Presión Humedad
    00:00 +23°C° 0.3 mm 0 mps 738 mmHg 99%
    01:00 +23°C° 0.3 mm 0 mps 738 mmHg 99%
    02:00 +23°C° 0.4 mm 0 mps 738 mmHg 99%
    03:00 +23°C° 0.4 mm 0 mps 738 mmHg 99%
    04:00 +23°C° 0.4 mm 0 mps 738 mmHg 99%
    05:00 +23°C° 0.8 mm 0 mps 739 mmHg 98%
    06:00 +23°C° 0.8 mm 0 mps 739 mmHg 97%
    07:00 +24°C° 0.8 mm 0 mps 740 mmHg 97%
    08:00 +26°C° 0.3 mm 1 mps 740 mmHg 95%
    09:00 +27°C° 0.3 mm 1 mps 740 mmHg 92%
    10:00 +27°C° 0.3 mm 1 mps 741 mmHg 90%
    11:00 +29°C° 0.3 mm 1 mps 740 mmHg 81%
    12:00 +31°C° 0.3 mm 1 mps 739 mmHg 71%
    13:00 +33°C° 0.3 mm 1 mps 738 mmHg 62%
    14:00 +32°C° 0.9 mm 1 mps 737 mmHg 71%
    15:00 +31°C° 0.9 mm 1 mps 736 mmHg 81%
    16:00 +30°C° 0.9 mm 1 mps 736 mmHg 91%
    17:00 +28°C° 0.6 mm 1 mps 736 mmHg 93%
    18:00 +27°C° 0.6 mm 1 mps 736 mmHg 95%
    19:00 +24°C° 0.6 mm 0 mps 737 mmHg 97%
    20:00 +24°C° 0.1 mm 0 mps 737 mmHg 97%
    21:00 +23°C° 0.1 mm 0 mps 738 mmHg 97%
    22:00 +23°C° 0.1 mm 0 mps 739 mmHg 97%
    23:00 +25°C° 0 mm 1 mps 738 mmHg 98%
    Mostrar más